カタログに戻る

COSMOS 683

運用中軍事LEO
NORAD 7441·PAYLOAD·🇷🇺 Russia

打ち上げ Sep 19, 1974 から Plesetsk Cosmodrome

Loading…

次のパス (今後24時間)

TLE

最新Source: Space-Track

元期: Sep 14, 2026, 09:37 UTC

1 07441U 74072G   26257.40117626 -.00000027  00000-0 -72509-4 0  9993
2 07441  74.0353  47.8071 0020289 158.7705 201.4194 12.53520292378832

AllMySatでCOSMOS 683をリアルタイム追跡

Download on the App Store